{"data":{"norad_id":38043,"intl_designator":"2011-080D","name":"GLOBALSTAR M092","alt_names":[],"object_type":"PAYLOAD","status":"ACTIVE","operator":null,"country":"GLOB","launch_date":"2011-12-28","launch_site_code":"TYMSC","launch_vehicle":null,"mission":null,"orbit_class":"UNKNOWN","rcs_meters":4.667,"size_class":null,"mass_kg":null,"dimensions":null,"purposes":["comms"],"wikipedia_slug":null,"has_3d_model":false,"image_url":null,"decayed_at":null,"tle_current":{"epoch":"2026-09-20T00:42:33.146784Z","epoch_age_seconds":55774,"freshness":"FRESH","line1":"1 38043U 11080D   26263.02955031 -.00000108  00000+0 -20984-4 0  9999","line2":"2 38043  52.0069 136.2132 0000751  75.9496  64.5447 12.62266051680020","mean_motion":12.62266051,"eccentricity":7.51e-5,"inclination_deg":52.0069,"raan_deg":136.2132,"arg_perigee_deg":75.9496,"mean_anomaly_deg":64.5447,"bstar":-2.0984e-5,"rev_number":68002,"period_min":114.08054576602,"perigee_km":1413.0200129536,"apogee_km":1414.190332628,"semimajor_km":7791.7421727908,"source":"CELESTRAK","updated_at":"2026-09-20T09:00:45.040162Z"}}}